Flag Weather past 2 weeks in Dormagen, North Rhine-Westphalia, Germany

Now
34 °F

Clear.


Feels Like: 31 °F
Forecast: 38 / 46 °F
Wind: 3 mph from Southeast

Location: Duesseldorf

Current Time: Nov 25, 2014 at 12:03:40 AM

Latest Report: Nov 24, 2014 at 11:20 PM


Visibility: 10 mi

Pressure: 30.33 "Hg

Humidity: 100%

Dew point: 34 °F

Location of DormagenLocation

Historic Weather in Dormagen — Graph

°F

Dormagen temperature yesterday

Maximum temperature yesterday: 52 °F (at 12:20 AM)
Minimum temperature yesterday: 34 °F (at 10:20 PM)
Average temperature yesterday: 47 °F

Past Weeks' High & Low Weather Summary

 TemperatureHumidityPressure
High59 °F (Nov 23, 1:50 PM)100% (Nov 10, 6:20 AM)30.33 "Hg (Nov 10, 6:20 AM)
Low34 °F (Nov 21, 2:50 AM)58% (Nov 21, 1:50 PM)29.50 "Hg (Nov 16, 4:20 PM)
Average48 °F84%29.89 "Hg
* Reported Nov 9 11:20 PM — Nov 24 11:20 PM, Dormagen, Weather by CustomWeather, © 2014

Note: Actual official high and low records may vary slightly from our data, if they occured in-between our weather recording intervals... More about our weather records

Advertising

Dormagen weather history for previous 24 hours

 ConditionsComfort  
Time TempWeatherWind HumidityBarometerVisibility
11:20 PM
Nov 24
34 °FClear.3 mph100%30.33 "Hg10 mi
10:20 PM34 °FClear.2 mph93%30.33 "Hg10 mi
9:50 PM36 °FClear.1 mph93%30.33 "Hg10 mi
9:20 PM37 °FClear.2 mph87%30.33 "Hg10 mi
8:50 PM37 °FClear.3 mph93%30.33 "Hg10 mi
8:20 PM39 °FClear.2 mph87%30.33 "Hg10 mi
7:50 PM37 °FClear.1 mph87%30.33 "Hg10 mi
7:20 PM39 °FClear.2 mph81%30.33 "Hg10 mi
6:50 PM39 °FClear.3 mph87%30.33 "Hg10 mi
6:20 PM43 °FClear.1 mph81%30.33 "Hg10 mi
5:50 PM43 °FClear.2 mph76%30.30 "Hg10 mi
5:20 PM45 °FClear.3 mph76%30.30 "Hg10 mi
4:50 PM46 °FPassing clouds.1 mph71%30.30 "HgN/A
4:20 PM50 °FScattered clouds.3 mph62%30.30 "HgN/A
3:50 PM52 °FPassing clouds.3 mph58%30.30 "HgN/A
3:20 PM52 °FPassing clouds.7 mph58%30.30 "HgN/A
2:50 PM52 °FPassing clouds.5 mph58%30.30 "HgN/A
2:20 PM52 °FPassing clouds.5 mph58%30.27 "HgN/A
1:50 PM52 °FPassing clouds.6 mph62%30.27 "HgN/A
1:20 PM52 °FPassing clouds.3 mph58%30.27 "HgN/A
12:50 PM52 °FPassing clouds.2 mph62%30.27 "HgN/A
12:20 PM52 °FPassing clouds.2 mph62%30.27 "HgN/A
11:50 AM50 °FPassing clouds.2 mph76%30.27 "HgN/A
11:20 AM50 °FPassing clouds.3 mph82%30.27 "HgN/A
10:50 AM50 °FPassing clouds.3 mph82%30.27 "HgN/A
10:20 AM48 °FPassing clouds.3 mph87%30.27 "HgN/A
9:50 AM46 °FPassing clouds.3 mph93%30.27 "HgN/A
9:20 AM46 °FPassing clouds.2 mph93%30.24 "HgN/A
8:50 AM45 °FPassing clouds.5 mph93%30.24 "HgN/A
8:20 AM46 °FScattered clouds.6 mph87%30.21 "HgN/A
7:50 AM46 °FPartly cloudy.7 mph93%30.21 "HgN/A
7:20 AM48 °FPassing clouds.7 mph87%30.18 "HgN/A
6:50 AM48 °FLight rain. Partly cloudy.13 mph94%30.18 "HgN/A
6:20 AM48 °FPartly cloudy.9 mph94%30.15 "Hg5 mi
5:50 AM48 °FLight rain. Passing clouds.9 mph94%30.15 "Hg5 mi
5:20 AM48 °FLight rain. Partly cloudy.7 mph94%30.12 "HgN/A
4:20 AM50 °FPartly cloudy.6 mph88%30.09 "HgN/A
3:50 AM50 °FPartly cloudy.12 mph88%30.09 "HgN/A
3:20 AM50 °FPassing clouds.10 mph94%30.07 "Hg3 mi
2:50 AM52 °FPassing clouds.8 mph88%30.04 "Hg4 mi
2:20 AM52 °FPassing clouds.7 mph82%30.04 "HgN/A
1:50 AM52 °FPartly cloudy.7 mph77%30.01 "HgN/A
1:20 AM52 °FPassing clouds.10 mph77%30.01 "HgN/A
12:50 AM52 °FPassing clouds.10 mph77%30.01 "HgN/A
12:20 AM52 °FLight rain. Mostly cloudy.12 mph77%30.01 "HgN/A
Weather by CustomWeather, © 2014

See weather overviewHow to use our weather pages